Regional Weather Roundup
Issued by NWS Wakefield, VA

Home | Current Version | Previous Version | Text Only | Print | Product List | Glossary Off
Versions: 1 2 3 4 5 6 7 8 9 10 11 12 13 14 15 16 17 18 19 20 21 22 23 24 25 26 27 28 29 30 31 32 33 34 35 36 37 38 39 40 41 42 43 44 45 46 47 48 49

000
ASUS41 KAKQ 201210
RWRAKQ

REGIONAL WEATHER ROUNDUP
NATIONAL WEATHER SERVICE WAKEFIELD VA
800 AM EDT SAT SEP 20 2014

Note: "fair" indicates few or no clouds below 12,000 feet with no
significant weather and/or obstructions to visibility. * = Denotes
station may not report precipitation (e.g., rain,snow,etc.),
thunder or fog.

VAZ042-051-052>054-056-201300-
NORTHERN VIRGINIA

CITY           SKY/WX    TMP DP  RH WIND       PRES   REMARKS
WASH NATIONAL  MOSUNNY   66  60  81 CALM      30.26S
DULLES         MOSUNNY   58  58 100 CALM      30.26S FOG
FORT BELVOIR   SUNNY     59  59  97 CALM      30.26S FOG
QUANTICO       SUNNY     62  60  93 NW6       30.26F
FREDERICKSBRG* SUNNY     60  60 100 CALM      30.25S
STAFFORD*      FOG       58  58 100 CALM      30.30S VSB 1/4
WARRENTON      FOG       60  60 100 CALM      30.25F VSB 1/4
CULPEPER*      FOG       55  55 100 CALM      30.27S VSB 1/4
MANASSAS*      CLOUDY    61  61 100 CALM      30.26S
LEESBURG*      CLOUDY    63  63 100 S5        30.27S FOG
WINCHESTER     SUNNY     59  57  94 S3        30.24S
FRONT ROYAL*   SUNNY     61  55  82 CALM      30.24S
LURAY*         SUNNY     63  59  88 CALM      30.25S
$$

VAZ048-049-060>072-079>083-201300-
CENTRAL AND SOUTH CENTRAL VIRGINIA...AND NORTH CENTRAL NORTH CAROLINA

CITY           SKY/WX    TMP DP  RH WIND       PRES   REMARKS
RICHMOND       MOSUNNY   61  58  90 CALM      30.24F
CHESTERFIELD*  MOSUNNY  N/A N/A N/A CALM      30.25F
PETERSBURG*    SUNNY     59  57  95 CALM      30.25S FOG
HANOVER        MOSUNNY   59  58  96 CALM      30.27R FOG
TAPPAHANNOCK*  SUNNY     57  55  94 CALM      30.25F FOG
CHARLOTTSVILLE FOG       58  57  97 CALM      30.26S VSB 1/2
ORANGE*        SUNNY     55  54  94 CALM      30.27F FOG
LOUISA*        SUNNY     57  55  94 CALM      30.25S FOG
FARMVILLE*     PTSUNNY   63  61  94 CALM      30.24S FOG
CREWE*         CLOUDY    61  58  90 CALM      30.25S
FORT PICKETT*  CLOUDY    61  59  93 N3        30.25S
LUNENBURG*     CLOUDY    61  59  94 N5        30.25S
SOUTH HILL*    SUNNY     61  61 100 N6        30.29S
LAWRENCEVILLE* SUNNY     59  58  96 CALM      30.23F
ROANOKE RAPIDS SUNNY     55  55 100 N5        30.21S FOG
RALEIGH        MOSUNNY   60  56  86 CALM      30.23R
$$

VAZ088>098-201300-
SOUTHEAST VIRGINIA

CITY           SKY/WX    TMP DP  RH WIND       PRES   REMARKS
NORFOLK        PTSUNNY   71  65  81 E9        30.20S
VIRGINIA BEACH PTSUNNY   71  65  81 E10       30.19S
NORFOLK NAVAL  MOSUNNY   72  65  78 E10       30.22S
WEST POINT*    MOSUNNY   61  60  94 CALM      30.26S
NEWPORT NEWS   MOSUNNY   69  64  84 N5        30.22S
LANGLEY AFB    SUNNY     71  67  86 E10       30.21S
FORT EUSTIS    MOSUNNY   66 N/A N/A VRB3      30.21S
WILLIAMSBURG*  SUNNY     63  63 100 CALM      30.24S
HR EXEC AP*    SUNNY     54  52  94 CALM      30.23S
FRANKLIN*      SUNNY     57 N/A N/A CALM      30.22S
WAKEFIELD      SUNNY     61  58  90 N3        30.23S FOG
$$

VAZ020-022-025-037-045-201300-
WEST CENTRAL AND SOUTHWEST VIRGINIA

CITY           SKY/WX    TMP DP  RH WIND       PRES   REMARKS
STAUNTON*      SUNNY     55  52  90 CALM      30.28S FOG
HOT SPRINGS VA CLEAR     52  38  58 S7        30.33S
LYNCHBURG      MOSUNNY   60  59  96 NW3       30.27S
DANVILLE       SUNNY     60  57  89 CALM      30.25S FOG
SOUTH BOSTON*  NOT AVBL
MARTINSVILLE   PTCLDY    59  59 100 CALM      30.28S FOG
ROANOKE        MOCLDY    60  58  92 CALM      30.29R FOG
BLACKSBURG     MOCLDY    57  57 100 SE3       30.30S FOG
DUBLIN*        MOCLDY    58  58 100 CALM      30.29S FOG
MARION*        CLEAR     60  56  89 CALM      30.30R
HILLSVILLE*    MOCLDY    56  55  97 CALM      30.29S
RICHLANDS*     SUNNY     62  56  81 S5        30.25R
WISE*          CLEAR     61  54  77 S7        30.26R
ABINGDON*      CLEAR     59  57  92 CALM      30.25R
$$

MDZ021>025-VAZ099-100-201300-
SOUTHERN MARYLAND AND THE DELMARVA PENINSULA

CITY           SKY/WX    TMP DP  RH WIND       PRES   REMARKS
PATUXENT RIVER MOSUNNY   65  62  90 CALM      30.25S
BAY BRIDGE APT   N/A     64  61  88 CALM      30.26F
LEONARDTOWN    SUNNY     59  57  94 CALM      30.27S
DOVER          SUNNY     64  61  91 CALM      30.24S
GEORGETOWN     CLOUDY    60  57  89 CALM      30.26F
EASTON         SUNNY     63  63 100 CALM      30.29F
CAMBRIDGE      SUNNY     61  59  94 CALM      30.25S
SALISBURY      CLOUDY    62  58  86 CALM      30.25S
OCEAN CITY     CLOUDY    71  63  75 SE9       30.24S
WALLOPS ISLAND CLOUDY    71  63  75 E8        30.24S
ACCOMACK*      CLOUDY    68  63  83 E3        30.22S
$$

NCZ012>017-030>032-201300-
EASTERN NORTH CAROLINA

CITY           SKY/WX    TMP DP  RH WIND       PRES   REMARKS
ELIZABETH CITY PTSUNNY   70  67  90 NE8       30.18S
AHOSKIE*       SUNNY     58  56  93 N5        30.21S
EDENTON*       PTSUNNY   63  62  96 CALM      30.18R
CURRITUCK*     PTSUNNY   72  65  81 NE8       30.19S
KILL DEVIL HLS PTSUNNY   72  69  89 NE7       30.14F
MANTEO         CLOUDY    72  68  89 NE12      30.16S
CAPE HATTERAS  CLOUDY    71  70  96 NE9G20    30.11S
TARBORO*       MOSUNNY   60  57  92 N3        30.21R
GOLDSBORO      MOSUNNY   63  62  98 N1        30.16S
WASHINGTON     CLOUDY    64  61  91 NE6       30.17R
GREENVILLE     MOSUNNY   63  61  94 NE5       30.19R
NEW BERN       CLOUDY    69  63  81 N7        30.15S
WILMINGTON     CLOUDY    66  61  84 NE13      30.11S
$$

VAZ048-201300-
ELSEWHERE

CITY           SKY/WX    TMP DP  RH WIND       PRES   REMARKS
HARRISBURG PA  CLOUDY    61  56  83 SE7       30.25F FOG
BALTIMORE      MOSUNNY   63  59  87 NE6       30.26S FOG
ANNAPOLIS      MOSUNNY   68  62  81 SE10      30.26S
ANDREWS AFB    SUNNY     60  60  99 CALM      30.26S
WILMINGTON DE  MOSUNNY   62  57  83 E5        30.28F
PHILADELPHIA   MOSUNNY   61  57  87 E7        30.28F
WILDWOOD NJ*   PTSUNNY   68  57  68 E5        30.28R
ATLANTIC CITY  SUNNY     60  58  92 CALM      30.28S
HENDERSON NC   SUNNY     59  58  94 N7        30.24S FOG
GREENSBORO     MOSUNNY   59  58  96 N7        30.24R FOG
ROCKY MOUNT    MOSUNNY   61  58  90 N7        30.20S
FAYETTEVILLE   PTSUNNY   62  59  90 N10       30.16S
CHARLOTTE      PTCLDY    61  58  90 N7        30.21S
$$

VAZ100-201300-
MARINE

STATION/POSITION TIME  TEMP    WIND        PRES    WAVE   SWELL
                       AIR SEA DIR/SP/G            HT/PER HT/PER
                 (UTC) (F)     (DEG/KT/KT) (MB)    (FT/S) (FT/S)
44066 TX TWR #4  1200   68 72  100/ 12/ 16 1025.9F   4/ 8   3/ 8
CAPE MAY NJ      1200   69 74  110/  5/  6 1024.3S
LEWES DE         1200   70 71  120/  6/  8 1024.3S
15NM E FENWICK I 1200   71 71              1023.7R   5/ 7
OCEAN-CITY-INLET 1200   71 71  130/ 10/ 15 1023.7F
WACHAPREAGUE VA  1200   71 72  100/  9/ 14 1023.4F
THOMAS POINT MD  1200   67 73  120/  9/ 10 1025.5R
GOOSES REEF MD   1200   68     130/  8/ 10 1025.0S
COVE POINT MD    1200   66      90/  7/  8 1024.4F
SOLOMONS ISLAND  1200      75                N/A
BISHOPS HEAD MD  1200   65 70   40/  8/ 10 1023.9S
PINEY POINT MD   1200           80/  5/  6   N/A
POTOMAC MD       1200   70      50/  8/ 10 1023.8R
CAMBRIDGE MD     1200   64 74   50/  1/  5 1024.3F
LEWISETTA VA     1200   69 73   70/  7/ 10 1023.8F
RAPPAHANNOCK LGT 1200           80/ 10/ 11 1023.9S
STINGRAY PT      1200   72      90/ 10/ 12   N/A
YORK RVR RNG VA  1200   73      90/ 11/ 13 1022.8S
YORKTOWN VA      1200   72 76   90/ 11/ 14 1023.2R
JAMESTOWN VA     1200   64      30/  4/  6   N/A
DOMINION TERM VA 1200   72      70/ 11/ 15 1023.0F
KIPTOPEKE VA     1200      78   90/ 11/ 17   N/A
CHES BAY BRIDGE  1200   72 75   60/ 20/ 23 1022.0F
CAPE HENRY VA    1200   71      70/ 20/ 23 1021.3S
CHESAPEAKE LGHT  1100   71      70/ 26/ 27 1022.7F
WILLOUBY STN VA  1200   72      80/ 15/ 17 1021.5F
S CRANEY ISL VA  1200           50/  9/ 10 1022.4F
CAPE HENRY BUOY  1200      75                N/A     6/ 6   2/11
1ST LANDING BUOY 1200   72      80/ 19/ 23 1022.3F
CAPE CHARLES BUO 1200      74                N/A     5/ 8   3/ 8
OFFSHORE WE BUOY 1200      74                N/A     7/ 6   3/11
64NM E OF VA BCH 1200   74 77   40/ 17/ 21 1020.8F   8/ 8   5/ 8
DUCK PIER NC     1200   72 74   40/ 17/ 19 1020.7S
44100 DUCK FRF   1200      74                N/A     6/ 6   2/11
44056 DUCK FRF   1200                        N/A     5/ 7   2/11
OREGON INLET NC  1200   72 73   20/ 15/ 18 1020.4F
HATTERAS NC      1200   73 73   20/ 15/ 19 1020.0S
DIAMOND SHLS NC  1200   80      70/ 19/ 23 1018.5F   7/ 8   2/15
CAPE LOOKOUT NC  1100   73      20/ 20/ 24 1019.2R
$$


USA.gov is the U.S. government's official web portal to all federal, state and local government web resources and services.